| time (UTC) | temp F | wind direction | speed MPH | gust MPH | rain 1hr in | rain 24hr in | rain mn in | humidity % | barometer mb |
| 20260903133816 | 79 | 130 | 3.0 | 4.0 | 0.00 | 0.00 | 0.00 | 22 | 1009.4 |
| 20260903132817 | 78 | 0.0 | 0.0 | 0.00 | 0.00 | 0.00 | 25 | 1009.3 | |
| 20260903131816 | 80 | 0.0 | 0.0 | 0.00 | 0.00 | 0.00 | 24 | 1009.2 | |
| 20260903130817 | 80 | 0.0 | 0.0 | 0.00 | 0.00 | 0.00 | 24 | 1009.1 | |
| 20260903130117 | 79 | 0.0 | 0.0 | 0.00 | 0.00 | 0.00 | 23 | 1009.1 | |
| 20260903125116 | 79 | 0.0 | 0.0 | 0.00 | 0.00 | 0.00 | 24 | 1009.1 | |
| 20260903124117 | 81 | 0.0 | 0.0 | 0.00 | 0.00 | 0.00 | 21 | 1009.2 | |
| 20260903123116 | 80 | 0.0 | 0.0 | 0.00 | 0.00 | 0.00 | 20 | 1009.2 | |
| 20260903122117 | 80 | 0.0 | 0.0 | 0.00 | 0.00 | 0.00 | 20 | 1009.1 | |
| 20260903121917 | 81 | 0.0 | 0.0 | 0.00 | 0.00 | 0.00 | 20 | 1009.1 | |
| 20260903120916 | 81 | 0.0 | 0.0 | 0.00 | 0.00 | 0.00 | 21 | 1009.1 | |
| 20260903120417 | 81 | 0.0 | 0.0 | 0.00 | 0.00 | 0.00 | 20 | 1009.1 | |
| 20260903115417 | 81 | 0.0 | 0.0 | 0.00 | 0.00 | 0.00 | 21 | 1009.1 | |
| 20260903114417 | 82 | 0.0 | 0.0 | 0.00 | 0.00 | 0.00 | 20 | 1009.0 | |
| 20260903113817 | 83 | 0.0 | 0.0 | 0.00 | 0.00 | 0.00 | 19 | 1008.9 | |
| 20260903113316 | 83 | 0.0 | 0.0 | 0.00 | 0.00 | 0.00 | 18 | 1008.9 | |
| 20260903112317 | 83 | 0.0 | 0.0 | 0.00 | 0.00 | 0.00 | 18 | 1009.1 | |
| 20260903111316 | 82 | 0.0 | 0.0 | 0.00 | 0.00 | 0.00 | 19 | 1008.9 | |
| 20260903110317 | 83 | 0.0 | 0.0 | 0.00 | 0.00 | 0.00 | 19 | 1008.8 | |
| 20260903105316 | 83 | 0.0 | 0.0 | 0.00 | 0.00 | 0.00 | 18 | 1008.8 | |
| 20260903104317 | 83 | 0.0 | 0.0 | 0.00 | 0.00 | 0.00 | 19 | 1008.9 | |
| 20260903104117 | 82 | 314 | 0.0 | 0.0 | 0.00 | 0.00 | 0.00 | 19 | 1008.9 |
| 20260903103117 | 81 | 20 | 0.0 | 0.0 | 0.00 | 0.00 | 0.00 | 23 | 1009.0 |
| 20260903102116 | 83 | 0.0 | 0.0 | 0.00 | 0.00 | 0.00 | 19 | 1009.0 | |
| 20260903101117 | 83 | 0.0 | 0.0 | 0.00 | 0.00 | 0.00 | 18 | 1008.9 | |
| 20260903100116 | 83 | 0.0 | 0.0 | 0.00 | 0.00 | 0.00 | 18 | 1008.9 | |
| 20260903095117 | 83 | 260 | 0.0 | 0.0 | 0.00 | 0.00 | 0.00 | 17 | 1008.9 |
| 20260903094116 | 82 | 0.0 | 0.0 | 0.00 | 0.00 | 0.00 | 19 | 1008.9 | |
| 20260903093117 | 84 | 0.0 | 0.0 | 0.00 | 0.00 | 0.00 | 17 | 1008.8 | |
| 20260903092117 | 84 | 0.0 | 0.0 | 0.00 | 0.00 | 0.00 | 16 | 1008.9 | |
| 20260903091117 | 84 | 246 | 3.0 | 6.0 | 0.00 | 0.00 | 0.00 | 15 | 1008.9 |
| 20260903090116 | 84 | 230 | 3.0 | 4.0 | 0.00 | 0.00 | 0.00 | 15 | 1009.0 |
| 20260903085117 | 84 | 225 | 1.0 | 3.0 | 0.00 | 0.00 | 0.00 | 15 | 1009.0 |
| 20260903084116 | 83 | 178 | 3.0 | 5.0 | 0.00 | 0.00 | 0.00 | 15 | 1009.0 |
| 20260903083117 | 83 | 0.0 | 0.0 | 0.00 | 0.00 | 0.00 | 15 | 1009.0 | |
| 20260903082616 | 84 | 0.0 | 0.0 | 0.00 | 0.00 | 0.00 | 15 | 1009.0 | |
| 20260903081617 | 84 | 0.0 | 0.0 | 0.00 | 0.00 | 0.00 | 15 | 1009.1 | |
| 20260903080616 | 84 | 142 | 5.0 | 6.0 | 0.00 | 0.00 | 0.00 | 15 | 1009.1 |
| 20260903075617 | 85 | 0.0 | 0.0 | 0.00 | 0.00 | 0.00 | 15 | 1009.1 | |
| 20260903075017 | 85 | 0.0 | 0.0 | 0.00 | 0.00 | 0.00 | 15 | 1009.2 | |
| 20260903074417 | 85 | 0.0 | 0.0 | 0.00 | 0.00 | 0.00 | 15 | 1009.2 | |
| 20260903073716 | 86 | 0.0 | 0.0 | 0.00 | 0.00 | 0.00 | 14 | 1009.0 | |
| 20260903072717 | 88 | 260 | 3.0 | 5.0 | 0.00 | 0.00 | 0.00 | 12 | 1008.9 |
| 20260903071716 | 88 | 251 | 5.0 | 6.0 | 0.00 | 0.00 | 0.00 | 12 | 1008.9 |
| 20260903070717 | 88 | 0.0 | 0.0 | 0.00 | 0.00 | 0.00 | 13 | 1009.1 | |
| 20260903065716 | 88 | 0.0 | 0.0 | 0.00 | 0.00 | 0.00 | 13 | 1009.1 | |
| 20260903064717 | 88 | 0.0 | 0.0 | 0.00 | 0.00 | 0.00 | 13 | 1008.9 | |
| 20260903063716 | 88 | 0.0 | 0.0 | 0.00 | 0.00 | 0.00 | 13 | 1008.9 | |
| 20260903062717 | 89 | 0.0 | 0.0 | 0.00 | 0.00 | 0.00 | 13 | 1008.9 | |
| 20260903061716 | 89 | 0.0 | 0.0 | 0.00 | 0.00 | 0.00 | 13 | 1008.9 | |
| 20260903060717 | 90 | 0.0 | 0.0 | 0.00 | 0.00 | 0.00 | 15 | 1008.9 | |
| 20260903055717 | 89 | 0.0 | 0.0 | 0.00 | 0.00 | 0.00 | 17 | 1008.9 | |
| 20260903054717 | 89 | 0.0 | 0.0 | 0.00 | 0.00 | 0.00 | 16 | 1008.9 | |
| 20260903053717 | 89 | 0.0 | 0.0 | 0.00 | 0.00 | 0.00 | 18 | 1008.9 | |
| 20260903052717 | 89 | 0.0 | 0.0 | 0.00 | 0.00 | 0.00 | 17 | 1009.0 | |
| 20260903051716 | 91 | 0.0 | 0.0 | 0.00 | 0.00 | 0.00 | 15 | 1009.0 | |
| 20260903050717 | 92 | 233 | 0.0 | 0.0 | 0.00 | 0.00 | 0.00 | 14 | 1009.0 |
| 20260903045716 | 92 | 266 | 4.0 | 6.0 | 0.00 | 0.00 | 0.00 | 15 | 1008.8 |
| 20260903044717 | 92 | 256 | 7.0 | 8.0 | 0.00 | 0.00 | 0.00 | 14 | 1008.8 |
| 20260903043717 | 92 | 259 | 4.0 | 8.0 | 0.00 | 0.00 | 0.00 | 16 | 1008.8 |
| 20260903042716 | 93 | 243 | 4.0 | 6.0 | 0.00 | 0.00 | 0.00 | 16 | 1008.7 |
| 20260903041717 | 94 | 253 | 6.0 | 9.0 | 0.00 | 0.00 | 0.00 | 15 | 1008.6 |
| 20260903040717 | 94 | 245 | 5.0 | 8.0 | 0.00 | 0.00 | 0.00 | 15 | 1008.5 |
| 20260903035716 | 95 | 257 | 6.0 | 9.0 | 0.00 | 0.00 | 0.00 | 15 | 1008.3 |
| 20260903034717 | 96 | 248 | 6.0 | 8.0 | 0.00 | 0.00 | 0.00 | 13 | 1008.2 |
| 20260903033716 | 96 | 234 | 5.0 | 8.0 | 0.00 | 0.00 | 0.00 | 14 | 1008.1 |
| 20260903032717 | 96 | 220 | 2.0 | 5.0 | 0.00 | 0.00 | 0.00 | 16 | 1007.9 |
| 20260903031916 | 97 | 227 | 2.0 | 5.0 | 0.00 | 0.00 | 0.00 | 15 | 1007.7 |
| 20260903030917 | 98 | 236 | 5.0 | 6.0 | 0.00 | 0.00 | 0.00 | 16 | 1007.4 |
| 20260903025917 | 98 | 246 | 6.0 | 9.0 | 0.00 | 0.00 | 0.00 | 18 | 1007.3 |
| 20260903024917 | 98 | 234 | 2.0 | 5.0 | 0.00 | 0.00 | 0.00 | 21 | 1007.0 |
| 20260903023917 | 98 | 223 | 0.0 | 2.0 | 0.00 | 0.00 | 0.00 | 21 | 1006.8 |
| 20260903022917 | 99 | 212 | 0.0 | 1.0 | 0.00 | 0.00 | 0.00 | 21 | 1006.7 |
| 20260903021917 | 99 | 242 | 1.0 | 4.0 | 0.00 | 0.00 | 0.00 | 20 | 1006.5 |
| 20260903020916 | 100 | 249 | 0.0 | 1.0 | 0.00 | 0.00 | 0.00 | 20 | 1006.4 |
| 20260903015917 | 100 | 268 | 2.0 | 6.0 | 0.00 | 0.00 | 0.00 | 19 | 1006.4 |
| 20260903014916 | 101 | 287 | 5.0 | 6.0 | 0.00 | 0.00 | 0.00 | 19 | 1006.4 |
| 20260903013917 | 101 | 262 | 3.0 | 5.0 | 0.00 | 0.00 | 0.00 | 18 | 1006.4 |
| 20260903012916 | 102 | 266 | 4.0 | 6.0 | 0.00 | 0.00 | 0.00 | 18 | 1006.3 |
| 20260903011916 | 103 | 256 | 6.0 | 8.0 | 0.00 | 0.00 | 0.00 | 17 | 1006.2 |
| 20260903010916 | 104 | 261 | 4.0 | 7.0 | 0.00 | 0.00 | 0.00 | 17 | 1006.2 |
| 20260903005917 | 104 | 274 | 6.0 | 7.0 | 0.00 | 0.00 | 0.00 | 17 | 1006.2 |
| 20260903004916 | 105 | 302 | 3.0 | 7.0 | 0.00 | 0.00 | 0.00 | 16 | 1006.2 |
| 20260903003917 | 105 | 241 | 7.0 | 8.0 | 0.00 | 0.00 | 0.00 | 16 | 1006.2 |
| 20260903002816 | 106 | 261 | 6.0 | 8.0 | 0.00 | 0.00 | 0.00 | 16 | 1006.3 |
| 20260903001817 | 106 | 254 | 3.0 | 6.0 | 0.00 | 0.00 | 0.00 | 15 | 1006.3 |
| 20260903001416 | 106 | 261 | 4.0 | 7.0 | 0.00 | 0.00 | 0.00 | 15 | 1006.4 |
| 20260903000417 | 107 | 242 | 4.0 | 8.0 | 0.00 | 0.00 | 0.00 | 15 | 1006.5 |
| 20260902235416 | 107 | 0.0 | 0.0 | 0.00 | 0.00 | 0.00 | 15 | 1006.7 | |
| 20260902234417 | 108 | 218 | 3.0 | 7.0 | 0.00 | 0.00 | 0.00 | 14 | 1006.8 |
| 20260902233416 | 107 | 227 | 4.0 | 8.0 | 0.00 | 0.00 | 0.00 | 15 | 1006.9 |
| 20260902232417 | 107 | 223 | 5.0 | 8.0 | 0.00 | 0.00 | 0.00 | 15 | 1007.0 |
| 20260902231516 | 107 | 168 | 1.0 | 6.0 | 0.00 | 0.00 | 0.00 | 15 | 1007.1 |
| 20260902230517 | 106 | 257 | 0.0 | 1.0 | 0.00 | 0.00 | 0.00 | 16 | 1007.2 |
| 20260902225517 | 106 | 252 | 4.0 | 7.0 | 0.00 | 0.00 | 0.00 | 15 | 1007.3 |
| 20260902224517 | 106 | 236 | 1.0 | 5.0 | 0.00 | 0.00 | 0.00 | 15 | 1007.4 |
| 20260902223516 | 105 | 263 | 4.0 | 6.0 | 0.00 | 0.00 | 0.00 | 15 | 1007.3 |
| 20260902222517 | 105 | 266 | 1.0 | 4.0 | 0.00 | 0.00 | 0.00 | 16 | 1007.4 |
| 20260902221517 | 106 | 225 | 7.0 | 8.0 | 0.00 | 0.00 | 0.00 | 15 | 1007.6 |
| 20260902220516 | 106 | 232 | 7.0 | 11.0 | 0.00 | 0.00 | 0.00 | 15 | 1007.8 |
| 20260902215517 | 106 | 230 | 5.0 | 8.0 | 0.00 | 0.00 | 0.00 | 15 | 1008.0 |
| 20260902214516 | 107 | 212 | 5.0 | 8.0 | 0.00 | 0.00 | 0.00 | 15 | 1008.2 |
| 20260902213517 | 105 | 124 | 0.0 | 2.0 | 0.00 | 0.00 | 0.00 | 17 | 1008.4 |
| 20260902213317 | 105 | 0.0 | 0.0 | 0.00 | 0.00 | 0.00 | 17 | 1008.4 | |
| 20260902213016 | 105 | 227 | 5.0 | 7.0 | 0.00 | 0.00 | 0.00 | 17 | 1008.4 |
| 20260902212017 | 106 | 218 | 2.0 | 4.0 | 0.00 | 0.00 | 0.00 | 17 | 1008.6 |
| 20260902211016 | 104 | 279 | 1.0 | 4.0 | 0.00 | 0.00 | 0.00 | 17 | 1008.7 |
| 20260902210017 | 105 | 217 | 7.0 | 10.0 | 0.00 | 0.00 | 0.00 | 17 | 1009.0 |
| 20260902205016 | 103 | 260 | 3.0 | 5.0 | 0.00 | 0.00 | 0.00 | 17 | 1009.0 |
| 20260902204017 | 103 | 241 | 7.0 | 9.0 | 0.00 | 0.00 | 0.00 | 16 | 1009.2 |
| 20260902203016 | 102 | 257 | 5.0 | 8.0 | 0.00 | 0.00 | 0.00 | 18 | 1009.3 |
| 20260902202017 | 103 | 231 | 3.0 | 7.0 | 0.00 | 0.00 | 0.00 | 17 | 1009.5 |
| 20260902201016 | 103 | 234 | 6.0 | 8.0 | 0.00 | 0.00 | 0.00 | 18 | 1009.7 |
| 20260902200017 | 103 | 220 | 2.0 | 7.0 | 0.00 | 0.00 | 0.00 | 17 | 1009.8 |
| 20260902195016 | 99 | 0.0 | 0.0 | 0.00 | 0.00 | 0.00 | 19 | 1010.0 | |
| 20260902194017 | 101 | 244 | 5.0 | 6.0 | 0.00 | 0.00 | 0.00 | 20 | 1010.2 |
| 20260902193016 | 100 | 254 | 1.0 | 4.0 | 0.00 | 0.00 | 0.00 | 19 | 1010.4 |
| 20260902192017 | 101 | 156 | 0.0 | 2.0 | 0.00 | 0.00 | 0.00 | 19 | 1010.5 |
| 20260902191016 | 102 | 207 | 2.0 | 4.0 | 0.00 | 0.00 | 0.00 | 19 | 1010.6 |
| 20260902190017 | 99 | 0.0 | 0.0 | 0.00 | 0.00 | 0.00 | 20 | 1010.6 | |
| 20260902185016 | 101 | 155 | 1.0 | 5.0 | 0.00 | 0.00 | 0.00 | 20 | 1010.7 |
| 20260902184017 | 97 | 0.0 | 0.0 | 0.00 | 0.00 | 0.00 | 20 | 1010.8 | |
| 20260902183016 | 99 | 173 | 1.0 | 4.0 | 0.00 | 0.00 | 0.00 | 19 | 1011.1 |
| 20260902182017 | 97 | 0.0 | 0.0 | 0.00 | 0.00 | 0.00 | 19 | 1011.3 | |
| 20260902181016 | 97 | 245 | 1.0 | 3.0 | 0.00 | 0.00 | 0.00 | 19 | 1011.4 |
| 20260902180017 | 96 | 0.0 | 0.0 | 0.00 | 0.00 | 0.00 | 20 | 1011.5 | |
| 20260902175017 | 95 | 320 | 0.0 | 0.0 | 0.00 | 0.00 | 0.00 | 19 | 1011.6 |
| 20260902174016 | 96 | 275 | 3.0 | 7.0 | 0.00 | 0.00 | 0.00 | 18 | 1011.6 |
| 20260902173016 | 96 | 300 | 3.0 | 6.0 | 0.00 | 0.00 | 0.00 | 17 | 1011.6 |
| 20260902172017 | 95 | 324 | 0.0 | 1.0 | 0.00 | 0.00 | 0.00 | 17 | 1011.7 |
| 20260902171017 | 95 | 312 | 1.0 | 5.0 | 0.00 | 0.00 | 0.00 | 17 | 1011.8 |
| 20260902170017 | 94 | 317 | 5.0 | 6.0 | 0.00 | 0.00 | 0.00 | 17 | 1011.8 |
| 20260902165716 | 94 | 270 | 2.0 | 4.0 | 0.00 | 0.00 | 0.00 | 16 | 1011.8 |
| 20260902164716 | 93 | 327 | 4.0 | 5.0 | 0.00 | 0.00 | 0.00 | 16 | 1011.9 |
| 20260902163716 | 93 | 309 | 3.0 | 6.0 | 0.00 | 0.00 | 0.00 | 16 | 1011.9 |
| 20260902162717 | 92 | 322 | 2.0 | 6.0 | 0.00 | 0.00 | 0.00 | 17 | 1011.8 |
| 20260902161716 | 92 | 302 | 5.0 | 7.0 | 0.00 | 0.00 | 0.00 | 16 | 1011.8 |
| 20260902161316 | 92 | 312 | 3.0 | 8.0 | 0.00 | 0.00 | 0.00 | 16 | 1011.9 |
| 20260902160317 | 92 | 340 | 3.0 | 4.0 | 0.00 | 0.00 | 0.00 | 16 | 1011.8 |
| 20260902155316 | 92 | 22 | 0.0 | 2.0 | 0.00 | 0.00 | 0.00 | 16 | 1011.8 |
| 20260902154316 | 92 | 0.0 | 0.0 | 0.00 | 0.00 | 0.00 | 16 | 1011.7 | |
| 20260902153317 | 91 | 61 | 0.0 | 0.0 | 0.00 | 0.00 | 0.00 | 16 | 1011.8 |
| 20260902152316 | 90 | 58 | 0.0 | 0.0 | 0.00 | 0.00 | 0.00 | 19 | 1011.8 |
| 20260902151316 | 89 | 0.0 | 0.0 | 0.00 | 0.00 | 0.00 | 19 | 1011.8 | |
| 20260902150316 | 89 | 86 | 2.0 | 3.0 | 0.00 | 0.00 | 0.00 | 19 | 1011.7 |
| 20260902145317 | 88 | 0.0 | 0.0 | 0.00 | 0.00 | 0.00 | 20 | 1011.6 | |
| 20260902144316 | 86 | 0.0 | 0.0 | 0.00 | 0.00 | 0.00 | 23 | 1011.7 | |
| 20260902143317 | 85 | 0.0 | 0.0 | 0.00 | 0.00 | 0.00 | 26 | 1011.8 | |
| 20260902142317 | 83 | 0.0 | 0.0 | 0.00 | 0.00 | 0.00 | 29 | 1011.8 | |
| 20260902141316 | 82 | 127 | 0.0 | 0.0 | 0.00 | 0.00 | 0.00 | 30 | 1011.7 |
| 20260902140317 | 81 | 117 | 0.0 | 0.0 | 0.00 | 0.00 | 0.00 | 31 | 1011.5 |
| 20260902135317 | 80 | 67 | 0.0 | 0.0 | 0.00 | 0.00 | 0.00 | 31 | 1011.4 |
| 20260902134316 | 79 | 0.0 | 0.0 | 0.00 | 0.00 | 0.00 | 33 | 1011.3 |